星链-5234 (STARLINK-5234 )

导读 | 星芒AI

STARLINK-5234 是 SpaceX Starlink 项目中的一颗低轨通信卫星,属于该星座的众多卫星之一,旨在为全球提供高速互联网服务。该卫星于2022年发射,运行在约550公里高度的近地轨道,具备先进的相控阵天线和激光通信技术,以提升网络连接的稳定性和传输效率。作为 Starlink 系统的一部分,STARLINK-5234 支持偏远地区的宽带接入,并增强整体星座的覆盖能力与冗余性。

基本信息
目录编号:
54197
目录名称:
STARLINK-5234
国际标识:
2022-141AS
轨道中心:
EARTH
卫星名称:
星链-5234
卫星全名:
星链-5234 (STARLINK-5234 )
卫星状态:
已陨落 最后检测时间 2024-04-15
发射日期:
2022-10-28 UTC
国别 :
美国 (US)
星等 :
--
轨道信息
数据来源 国际轨道数据
星历时间: 2024-04-15T10:22:22+0800
轨道信息已过期573天
半长轴: 6561.649km
偏心率: 0.0008271
轨道倾角: 53.184°
近地点辐角 338.788°
升交点赤经 187.199°
平近点角 115.450°
近地点: 178.086km
远地点: 188.942km
周期: 88.162分钟
每日圈数: 16.333653
详细信息
固有亮度:
5
最大亮度:
2.5
卫星平台:
Starlink v1.5
覆盖范围:
全球
运营商:
太空探索技术公司
运营商所在国:
美国
制造商(研发单位):
太空探索技术公司
制造商所在国:
美国
使用方式:
暂无
卫星简介
星链(Starlink)计划是由太空探索技术公司(SpaceX)提出的一个巨型低轨卫星互联网星座项目,计划在2019年至2024年间在太空搭建由约1.2万颗卫星组成的“星链”网络,其中1584颗将部署在地球上空550千米处的近地轨道,并从2020年开始工作。该卫星已陨落。